Time,TemperatureF,DewpointF,PressureIn,WindDirection,WindDirectionDegrees,WindSpeedMPH,WindSpeedGustMPH,Humidity,HourlyPrecipIn,Conditions,Clouds,dailyrainin,SoftwareType,DateUTC
2013-11-26 00:12:00,32.0,31.0,30.21,South,191,0.0,0.0,95,0.00,,,0.01,,2013-11-26 06:12:00,
2013-11-26 00:22:00,32.0,31.0,30.22,South,191,0.0,0.0,96,0.00,,,0.01,,2013-11-26 06:22:00,
2013-11-26 00:42:00,32.0,31.0,30.22,South,191,0.0,0.0,96,0.00,,,0.01,,2013-11-26 06:42:00,
2013-11-26 00:52:00,32.0,31.0,30.21,South,191,0.0,0.0,95,0.00,,,0.01,,2013-11-26 06:52:00,
2013-11-26 01:12:00,32.0,31.0,30.20,South,191,0.0,0.0,96,0.00,,,0.01,,2013-11-26 07:12:00,
2013-11-26 01:21:00,32.0,31.0,30.19,SSW,192,0.0,0.0,96,0.00,,,0.01,,2013-11-26 07:21:00,
2013-11-26 01:42:00,32.0,31.0,30.19,South,191,0.0,3.0,95,0.00,,,0.01,,2013-11-26 07:42:00,
2013-11-26 01:52:00,32.0,31.0,30.19,South,191,0.0,1.0,95,0.00,,,0.01,,2013-11-26 07:52:00,
2013-11-26 02:22:00,32.0,31.0,30.19,SSW,192,1.0,3.0,95,0.00,,,0.01,,2013-11-26 08:22:00,
2013-11-26 02:42:00,32.0,31.0,30.18,SSW,192,0.0,1.0,95,0.00,,,0.01,,2013-11-26 08:42:00,
2013-11-26 02:52:00,32.0,31.0,30.16,South,191,0.0,2.0,95,0.00,,,0.01,,2013-11-26 08:52:00,
2013-11-26 03:21:00,32.0,31.0,30.16,SSW,192,1.0,2.0,95,0.00,,,0.01,,2013-11-26 09:21:00,
2013-11-26 03:43:00,32.0,30.0,30.16,South,191,0.0,1.0,94,0.00,,,0.01,,2013-11-26 09:43:00,
2013-11-26 03:53:00,32.0,30.0,30.14,SSW,192,0.0,3.0,94,0.00,,,0.01,,2013-11-26 09:53:00,
2013-11-26 04:23:00,33.0,31.0,30.12,South,191,0.0,3.0,93,0.00,,,0.01,,2013-11-26 10:23:00,
2013-11-26 04:53:00,33.0,31.0,30.14,SSW,192,0.0,1.0,93,0.00,,,0.01,,2013-11-26 10:53:00,
2013-11-26 05:23:00,32.0,30.0,30.11,SSW,192,0.0,2.0,93,0.00,,,0.01,,2013-11-26 11:23:00,
2013-11-26 05:52:00,32.0,30.0,30.14,SSW,192,0.0,2.0,94,0.00,,,0.01,,2013-11-26 11:52:00,
2013-11-26 06:22:00,32.0,30.0,30.14,SSW,192,0.0,1.0,94,0.00,,,0.01,,2013-11-26 12:22:00,
2013-11-26 06:52:00,33.0,31.0,30.14,SSW,192,0.0,4.0,93,0.00,,,0.01,,2013-11-26 12:52:00,
2013-11-26 07:21:00,33.0,31.0,30.16,South,191,1.0,-999.0,91,-99.99,,,-99.99,,2013-11-26 13:21:00,
2013-11-26 07:42:00,34.0,32.0,30.17,South,191,0.0,1.0,91,0.00,,,0.01,,2013-11-26 13:42:00,
2013-11-26 07:52:00,34.0,32.0,30.16,SSW,192,0.0,1.0,91,0.01,,,0.02,,2013-11-26 13:52:00,
2013-11-26 08:22:00,34.0,32.0,30.17,West,277,0.0,1.0,92,0.01,,,0.02,,2013-11-26 14:22:00,
2013-11-26 08:52:00,35.0,32.0,30.16,NNW,329,0.0,3.0,88,0.00,,,0.02,,2013-11-26 14:52:00,
2013-11-26 09:22:00,36.0,32.0,30.15,NW,308,2.0,8.0,85,0.00,,,0.02,,2013-11-26 15:22:00,
2013-11-26 09:54:00,37.0,32.0,30.14,NW,305,0.0,5.0,82,0.00,,,0.02,,2013-11-26 15:54:00,
2013-11-26 10:23:00,38.0,31.0,30.14,WNW,303,1.0,7.0,76,0.00,,,0.02,,2013-11-26 16:23:00,
2013-11-26 10:54:00,41.0,31.0,30.14,WNW,301,5.0,11.0,68,0.00,,,0.02,,2013-11-26 16:54:00,
2013-11-26 11:22:00,43.0,32.0,30.12,NNE,27,2.0,9.0,65,0.00,,,0.02,,2013-11-26 17:22:00,
2013-11-26 11:42:00,43.0,32.0,30.11,WNW,302,4.0,12.0,64,0.00,,,0.02,,2013-11-26 17:42:00,
2013-11-26 11:52:00,43.0,31.0,30.11,NW,322,5.0,14.0,62,0.00,,,0.02,,2013-11-26 17:52:00,
2013-11-26 12:22:00,45.0,32.0,30.09,WNW,289,5.0,15.0,59,0.00,,,0.01,,2013-11-26 18:22:00,
2013-11-26 12:42:00,46.0,32.0,30.09,NW,312,6.0,13.0,57,0.00,,,0.01,,2013-11-26 18:42:00,
2013-11-26 12:53:00,47.0,32.0,30.08,NE,54,7.0,16.0,55,0.00,,,0.01,,2013-11-26 18:53:00,
2013-11-26 13:22:00,47.0,32.0,30.07,NNW,342,5.0,14.0,55,0.00,,,0.01,,2013-11-26 19:22:00,
2013-11-26 13:52:00,47.0,32.0,30.06,NNW,327,7.0,18.0,55,0.00,,,0.01,,2013-11-26 19:52:00,
2013-11-26 14:22:00,46.0,31.0,30.06,NW,312,9.0,16.0,55,0.00,,,0.01,,2013-11-26 20:22:00,
2013-11-26 14:42:00,47.0,31.0,30.06,NW,316,7.0,16.0,54,0.00,,,0.01,,2013-11-26 20:42:00,
2013-11-26 14:53:00,46.0,31.0,30.06,WNW,301,7.0,14.0,55,0.00,,,0.01,,2013-11-26 20:53:00,
2013-11-26 15:22:00,45.0,30.0,30.07,NNE,22,6.0,13.0,55,0.00,,,0.01,,2013-11-26 21:22:00,
2013-11-26 15:43:00,45.0,30.0,30.06,NE,34,7.0,15.0,55,0.00,,,0.01,,2013-11-26 21:43:00,
2013-11-26 15:53:00,44.0,29.0,30.07,NW,312,8.0,16.0,55,0.00,,,0.01,,2013-11-26 21:53:00,
2013-11-26 16:23:00,44.0,29.0,30.08,NNW,333,5.0,16.0,55,0.00,,,0.01,,2013-11-26 22:23:00,
2013-11-26 16:43:00,44.0,29.0,30.09,NNW,328,6.0,18.0,56,0.00,,,0.01,,2013-11-26 22:43:00,
2013-11-26 16:53:00,43.0,29.0,30.10,WNW,302,6.0,13.0,57,0.00,,,0.01,,2013-11-26 22:53:00,
2013-11-26 17:22:00,40.0,28.0,30.13,NW,308,9.0,18.0,61,0.00,,,0.01,,2013-11-26 23:22:00,
2013-11-26 17:43:00,38.0,26.0,30.14,NNW,330,7.0,17.0,62,0.00,,,0.01,,2013-11-26 23:43:00,
2013-11-26 17:53:00,37.0,26.0,30.16,NW,309,10.0,18.0,63,0.00,,,0.01,,2013-11-26 23:53:00,
2013-11-26 18:11:00,36.0,25.0,30.17,WSW,238,8.0,20.0,64,0.00,,,0.01,,2013-11-27 00:11:00,
2013-11-26 18:21:00,35.0,24.0,30.18,WNW,297,7.0,17.0,65,0.00,,,0.01,,2013-11-27 00:21:00,
2013-11-26 18:52:00,35.0,24.0,30.19,West,278,6.0,14.0,64,0.00,,,0.01,,2013-11-27 00:52:00,
2013-11-26 19:21:00,34.0,23.0,30.21,NNW,328,5.0,13.0,65,0.00,,,0.01,,2013-11-27 01:21:00,
2013-11-26 19:42:00,34.0,24.0,30.22,NNW,345,3.0,13.0,66,0.00,,,0.01,,2013-11-27 01:42:00,
2013-11-26 19:52:00,33.0,23.0,30.22,NNW,336,4.0,9.0,66,0.00,,,0.01,,2013-11-27 01:52:00,
2013-11-26 20:12:00,33.0,23.0,30.22,North,5,2.0,7.0,67,0.00,,,0.01,,2013-11-27 02:12:00,
2013-11-26 20:21:00,32.0,23.0,30.23,NW,314,1.0,6.0,68,0.00,,,0.01,,2013-11-27 02:21:00,
2013-11-26 20:42:00,32.0,23.0,30.23,NW,321,1.0,7.0,70,0.00,,,0.01,,2013-11-27 02:42:00,
2013-11-26 20:52:00,32.0,23.0,30.23,NW,307,2.0,7.0,69,0.00,,,0.01,,2013-11-27 02:52:00,
2013-11-26 21:21:00,31.0,22.0,30.23,NW,309,2.0,8.0,69,0.00,,,0.01,,2013-11-27 03:21:00,
2013-11-26 21:44:00,31.0,22.0,30.23,WNW,302,3.0,7.0,69,0.00,,,0.01,,2013-11-27 03:44:00,
2013-11-26 21:53:00,31.0,22.0,30.23,WNW,302,3.0,7.0,69,0.00,,,0.01,,2013-11-27 03:53:00,
2013-11-26 22:13:00,31.0,22.0,30.24,NW,305,3.0,8.0,68,0.00,,,0.01,,2013-11-27 04:13:00,
2013-11-26 22:43:00,31.0,21.0,30.24,WNW,301,2.0,7.0,66,0.00,,,0.01,,2013-11-27 04:43:00,
2013-11-26 22:53:00,31.0,20.0,30.25,NNW,328,6.0,17.0,63,0.00,,,0.01,,2013-11-27 04:53:00,
2013-11-26 23:02:00,31.0,20.0,30.25,NNW,328,6.0,17.0,63,0.00,,,0.01,,2013-11-27 05:02:00,
2013-11-26 23:22:00,30.0,19.0,30.27,WNW,297,7.0,18.0,63,0.00,,,0.01,,2013-11-27 05:22:00,
2013-11-26 23:42:00,30.0,19.0,30.27,North,349,6.0,15.0,64,0.00,,,0.01,,2013-11-27 05:42:00,
2013-11-26 23:53:00,30.0,20.0,30.27,WNW,301,4.0,11.0,65,0.00,,,0.01,,2013-11-27 05:53:00,